Miscellaneous Local Product
Issued by NWS Hastings, NE

Home | Current Version | Previous Version | Text Only | Print | Product List | Glossary Off
Versions: 1 2 3 4 5 6 7 8 9 10 11 12 13 14 15 16 17 18 19 20 21 22 23 24 25 26 27 28 29 30 31 32 33 34 35 36 37 38 39 40 41 42 43 44 45 46 47 48 49 50

000
AXUS43 KGID 181202
MISGRI

GID CWA HOURLY WEATHER ROUNDUP
NATIONAL WEATHER SERVICE HASTINGS NE
600 AM CST THU JAN 18 2018

NOTE: "FAIR" INDICATES FEW OR NO CLOUDS BELOW 12,000 FEET WITH NO
SIGNIFICANT WEATHER AND/OR OBSTRUCTIONS TO VISIBILITY.

...SOUTH CENTRAL NEBRASKA...

CITY           SKY/WX    TMP DP  RH WIND       PRES   REMARKS
GRAND ISLAND   CLOUDY    14  10  84 SW8       30.07F WCI   3
KEARNEY        CLOUDY    15  11  83 SW7       30.08F WCI   5
HASTINGS       CLOUDY    16   9  74 SW3       30.09F
ORD            CLEAR     11   8  88 SE3       30.02F
YORK           CLOUDY    12   9  85 CALM      30.11F
AURORA         CLOUDY    13   8  80 SW8       30.09F WCI   2
LEXINGTON      CLEAR     17  13  84 W5        30.07F WCI  10
HOLDREGE       CLOUDY    17  13  84 SW5       30.07F WCI  10
HEBRON         CLOUDY    17   8  68 SW5       30.15S WCI  10

...NEBRASKA PANHANDLE...

CITY           SKY/WX    TMP DP  RH WIND       PRES   REMARKS
CHADRON        CLEAR     25  19  78 SW5       29.99F WCI  19
ALLIANCE       CLEAR     15  13  91 W6        30.00F WCI   6
SCOTTSBLUFF    PTCLDY    18  14  84 CALM      30.04S
SIDNEY         PTCLDY    24  18  77 W8        30.06F WCI  15

...WESTERN AND NORTH CENTRAL NEBRASKA...

CITY           SKY/WX    TMP DP  RH WIND       PRES   REMARKS
VALENTINE      CLEAR     22  17  81 S5        29.95F WCI  16
AINSWORTH      CLEAR     27  21  80 SW9       29.97F WCI  18
ONEILL         PTCLDY    20  17  88 SW7       30.00S WCI  11
BROKEN BOW     CLEAR     16   9  74 SW3       30.02F
IMPERIAL       CLEAR     23  17  78 W8        30.07F WCI  14
NORTH PLATTE   CLEAR     15  10  80 NW5       30.07F WCI   8
MCCOOK         CLEAR     15  12  88 W6        30.10F WCI   6

...EASTERN NEBRASKA...

CITY           SKY/WX    TMP DP  RH WIND       PRES   REMARKS
NORFOLK        CLOUDY    14  11  87 S3        30.03F
SO SIOUX CITY  CLOUDY    12   9  87 SE6       30.04F WCI   3
TEKAMAH        CLOUDY    14   8  77 S10       30.11F WCI   1
COLUMBUS       CLOUDY    18  12  77 SW6       30.09F WCI  10
ALBION         CLOUDY    22  15  75 CALM      30.04F
OMAHA EPPLEY   CLOUDY    15   8  73 SE10      30.15F WCI   2
OFFUTT AFB     CLOUDY    10   5  80 CALM      30.15F
MILLARD        CLOUDY    18  11  73 SE3       30.15S
LINCOLN        CLOUDY    14   7  73 S6        30.16S WCI   5
NEBRASKA CITY  CLOUDY    19  10  70 S14       30.15F WCI   5
BEATRICE       CLOUDY    16   8  71 S8        30.16F WCI   5
FALLS CITY     CLOUDY    12   5  73 S5        30.22F WCI   4

...NORTHERN KANSAS...

CITY           SKY/WX    TMP DP  RH WIND       PRES   REMARKS
GOODLAND       CLEAR     23  11  60 SW7       30.10F WCI  15
HILL CITY      CLOUDY    16  11  80 W8        30.13F WCI   5
NORTON         SUNNY     14   9  79 SW10      30.09F WCI   1
PHILLIPSBURG   CLEAR     10   5  79 CALM      30.13F
SMITH CENTER     N/A      9   5  85 SW3       30.16S
BELOIT         CLEAR     12   7  79 CALM      30.18F
HAYS           CLOUDY    13   8  81 SW3       30.17S
RUSSELL        CLEAR     19  11  70 S13       30.15F WCI   6
CONCORDIA      CLOUDY    19   9  65 S13       30.15F WCI   6
SALINA         CLOUDY    17   8  67 S6        30.23F WCI   9
TOPEKA         CLOUDY    19   9  65 CALM      30.27F



USA.gov is the U.S. government's official web portal to all federal, state and local government web resources and services.